Weather in Berdiansk

Ukraine / Zaporizhia Region     46°45′20″N   36°47′21″E
temp.,
°C
wind,
m/s
gust,
m/s
humid.,
%
clouds,
%
prec.,
mm/h
press.,
hPa
HPBL,
m
5 march, fri
fri523:00+5sw9167966 0.0 1016530
02:00+4sw8148533 0.0 1015495
05:00+4sw8148121 0.0 1015508
08:00+5sw8128159 0.0 1014519
11:00+7sw7107999 0.0 1014474
14:00+7sw697673 0.0 1014435
17:00+7ssw598183 0.0 1013240
20:00+6ssw8138792 0.0 1014266
6 march, sat
sat623:00+6sw71189100 0.0 1012244
02:00+6sw7129296 0.0 1012303
05:00+5wsw71295100 0.0 1011328
08:00+6w6987100 0.0 1012353
11:00+5nnw9117399 0.0 1015712
14:00+4nnw8116399 0.0 10171183
17:00+3nnw81054100 0.0 10201410
20:000nnw7115679 0.0 1024867
7 march, sun
sun723:000nnw510590 0.0 1026825
02:00−1wnw58620 0.0 1027526
05:00−1wnw59600 0.0 1027432
08:000wnw68540 0.0 1027590
11:00+3wsw810480 0.0 10261648
14:00+4wsw10125419 0.0 10241691
17:00+3wsw10125726 0.0 1022915
20:00+2wsw8115727 0.0 1021698
8 march, mon
mon823:00+2wsw913620 0.0 1020697
02:00+3wsw1015690 0.0 1019871
05:00+3wsw10157355 0.0 1018809
08:00+4wsw10147274 0.0 10181047
11:00+5wsw11137098 0.0 10171152
14:00+6sw11137065 0.1 1016968
17:00+5sw10147548 0.0 1015623
20:00+5wsw8137374 0.0 1016457
9 march, tue
tue923:00+4wsw71279100 0.0 1016485
02:00+3w598092 0.1 1015364
05:00+2w458424 0.1 1015229
08:00+4w698013 0.1 1015570
11:00+5wsw67620 0.1 1016932
14:00+5nw686643 0.4 1016923
17:00+4nnw455396 0.0 10171177
20:00+2n455964 0.0 1018228